Location: Thompson
(55.7500°N, 97.8670°W)
Time: 21:15:22
(UTC-06:00)

Cosmos 1666 - Visible Passes

Search period start: 18 December 2014 00:00
Search period end: 28 December 2014 00:00
Orbit: 513 x 540 km, 82.5° (Epoch: 18 December)

Date Brightness Start Highest point End Pass type
(mag) Time Alt. Az. Time Alt. Az. Time Alt. Az.
18 Dec 5.8 05:55:36 10° SE 05:58:03 16° E 06:00:32 10° NE visible
18 Dec 2.7 07:29:44 10° SSW 07:33:33 64° WNW 07:37:26 10° N visible
18 Dec 2.8 17:18:29 10° N 17:22:23 54° ENE 17:26:16 10° SSE visible
18 Dec 5.5 18:55:07 10° NW 18:58:00 20° W 19:00:52 10° SW visible
19 Dec 5.9 05:44:12 10° ESE 05:46:30 15° E 05:48:48 10° NE visible
19 Dec 2.6 07:18:06 10° SSW 07:21:56 70° WNW 07:25:51 10° N visible
19 Dec 2.9 17:06:53 10° N 17:10:46 50° ENE 17:14:38 10° SSE visible
19 Dec 5.4 18:43:25 10° NW 18:46:25 21° W 18:49:26 10° SW visible
20 Dec 5.9 05:32:50 10° ESE 05:34:55 14° E 05:37:02 10° NE visible
20 Dec 2.6 07:06:28 10° SSW 07:10:19 76° WNW 07:14:14 10° N visible
20 Dec 3.0 16:55:17 10° N 16:59:08 46° ENE 17:02:58 10° SSE visible
20 Dec 5.3 18:31:42 10° NW 18:34:50 23° W 18:37:58 10° SW visible
21 Dec 6.0 05:21:28 10° ESE 05:23:20 13° E 05:25:13 10° NE visible
21 Dec 2.6 06:54:49 10° SSW 06:58:41 82° WNW 07:02:37 10° N visible
21 Dec 3.1 16:43:40 10° N 16:47:29 43° ENE 16:51:16 10° SE visible
21 Dec 5.2 18:20:00 10° NW 18:23:14 24° W 18:26:28 10° SW visible
22 Dec 6.1 05:10:09 10° ESE 05:11:45 12° E 05:13:21 10° ENE visible
22 Dec 2.6 06:43:10 10° S 06:47:02 89° W 06:50:59 10° NNE visible
22 Dec 5.1 18:08:17 10° NNW 18:11:37 26° W 18:14:57 10° SSW visible
23 Dec 6.1 04:58:54 10° E 05:00:09 11° E 05:01:24 10° ENE visible
23 Dec 2.7 06:31:31 10° S 06:35:23 84° E 06:39:19 10° NNE visible
23 Dec 4.4 08:09:40 10° W 08:11:56 15° WNW 08:14:13 10° NNW visible
23 Dec 5.0 17:56:34 10° NNW 18:00:00 28° W 18:03:25 10° SSW visible
24 Dec 6.2 04:47:48 10° E 04:48:32 10° E 04:49:16 10° ENE visible
24 Dec 2.8 06:19:51 10° S 06:23:43 78° E 06:27:39 10° NNE visible
24 Dec 4.3 07:57:47 10° W 08:00:13 16° WNW 08:02:41 10° NNW visible
24 Dec 4.8 17:44:50 10° NNW 17:48:21 31° W 17:51:51 10° SSW visible
25 Dec 2.9 06:08:11 10° S 06:12:03 71° E 06:15:58 10° NNE visible
25 Dec 4.2 07:45:54 10° WSW 07:48:29 17° WNW 07:51:07 10° NNW visible
25 Dec 4.7 17:33:06 10° NNW 17:36:42 33° W 17:40:16 10° SSW visible
26 Dec 3.1 05:56:31 10° S 06:00:21 65° E 06:04:16 10° NNE visible
26 Dec 4.1 07:34:01 10° WSW 07:36:45 18° WNW 07:39:31 10° NNW visible
26 Dec 4.5 17:21:22 10° NNW 17:25:01 36° W 17:28:39 10° SSW visible
27 Dec 3.3 05:49:01 56° ENE 05:49:01 56° ENE 05:52:33 10° NNE visible
27 Dec 4.1 07:24:26 19° WNW 07:25:00 19° WNW 07:27:54 10° NNW visible
27 Dec 4.4 17:09:37 10° NNW 17:13:20 39° W 17:17:02 10° SSW visible
